Change the Weather History Date:

Saturday, November 9, 2013

  Actual Average Record
Temperature  
Mean Temperature -6 °F -  
Max Temperature 2 °F - - ()
Min Temperature -15 °F - - ()
Degree Days  
Heating Degree Days 72    
Moisture  
Dew Point -8 °F    
Average Humidity 85    
Maximum Humidity 90    
Minimum Humidity 68    
Precipitation  
Precipitation 0.02 in - - ()
Sea Level Pressure  
Sea Level Pressure 29.89 in    
Wind  
Wind Speed 20 mph ()    
Max Wind Speed 31 mph    
Max Gust Speed 36 mph    
T = Trace of Precipitation, MM = Missing Value Source: Averaged Metar Reports

Daily Weather History Graph

Daily Weather History Graph

Search for Another Location

Airport or City:

Trip Planner

Search our weather history database for the weather conditions in past years. The results will help you decide how hot, cold, wet, or windy it might be!

Date:

Astronomy

Dec. 31, 1969 Rise Set
Actual Time Sun does not rise Sun does not rise
Civil Twilight 10:58 AM MST 12:15 PM MST
Nautical Twilight 7:18 AM MST 3:55 PM MST
Astronomical Twilight 5:10 AM MST 6:02 PM MST
Moon No Moon Rise No Moon Set
Length of Visible Light 1h 16m
Length of Day
0h 00m
Waxing Crescent, 45% of the Moon is Illuminated
Nov 9
Waxing Crescent
Nov 9
First Quarter
Nov 17
Full
Nov 25
Last Quarter
Dec 2
New

Hourly Weather History & Observations

Time (MST) Temp. Windchill Dew Point Humidity Pressure Visibility Wind Dir Wind Speed Gust Speed Precip Events Conditions
12:00 AM 2.3 °F -23.1 °F -0.2 °F 89% 29.81 in - NW 31.1 mph - N/A   Unknown
1:00 AM 2.1 °F -21.4 °F -0.4 °F 89% 29.82 in - NW 25.3 mph - N/A   Unknown
2:00 AM 1.8 °F -22.7 °F -0.6 °F 90% 29.82 in - NW 27.6 mph - N/A   Unknown
3:00 AM 1.0 °F -21.9 °F -1.7 °F 88% 29.84 in - NW 23.0 mph 32.2 mph N/A   Unknown
4:00 AM 0.1 °F -23.1 °F -2.6 °F 88% 29.86 in - NW 23.0 mph 29.9 mph N/A   Unknown
5:00 AM -1 °F - -4 °F 81% 29.86 in - NW 24.2 mph - -  
5:00 AM -0.9 °F -25.0 °F -3.8 °F 88% 29.86 in - NW 24.2 mph - N/A   Unknown
6:00 AM -2.0 °F -25.5 °F -4.9 °F 88% 29.85 in - NW 21.9 mph - N/A   Unknown
7:00 AM -2.7 °F -27.4 °F -5.6 °F 87% 29.86 in - NNW 24.2 mph - 0.01 in   Unknown
8:00 AM -2.7 °F -26.4 °F -5.6 °F 87% 29.86 in - NW 21.9 mph - N/A   Unknown
9:00 AM -2.7 °F -29.5 °F -5.6 °F 87% 29.86 in - NW 29.9 mph 35.7 mph N/A   Unknown
10:00 AM -3.5 °F -28.4 °F -6.3 °F 87% 29.88 in - NW 24.2 mph - N/A   Unknown
11:00 AM -3 °F - -6 °F 82% 29.88 in - NW 21.9 mph - -  
11:00 AM -2.6 °F -26.2 °F -5.4 °F 87% 29.88 in - NW 21.9 mph - N/A   Unknown
12:00 PM -2.7 °F -26.4 °F -5.6 °F 87% 29.88 in - NW 21.9 mph - N/A   Unknown
1:00 PM -3.8 °F -31.0 °F -6.9 °F 87% 29.88 in - NW 29.9 mph - N/A   Unknown
2:00 PM -4.4 °F -30.5 °F -7.4 °F 87% 29.90 in - NNW 26.5 mph - N/A   Unknown
3:00 PM -5.1 °F -28.4 °F -8.3 °F 86% 29.92 in - NW 19.6 mph - N/A   Unknown
4:00 PM -6.2 °F -32.0 °F -9.6 °F 85% 29.93 in - WNW 24.2 mph - N/A   Unknown
5:00 PM -7 °F - -10 °F 79% 29.94 in - NW 19.6 mph - -  
5:00 PM -6.5 °F -30.3 °F -9.9 °F 85% 29.94 in - NW 19.6 mph - N/A   Unknown
6:00 PM -6.7 °F -30.6 °F -9.9 °F 86% 29.95 in - WNW 19.6 mph - N/A   Unknown
7:00 PM -9.2 °F -31.9 °F -12.8 °F 84% 29.95 in - WNW 16.1 mph - N/A   Unknown
8:00 PM -11.2 °F -24.8 °F -15.0 °F 83% 29.95 in - WNW 5.8 mph - 0.01 in   Unknown
9:00 PM -12.1 °F -21.7 °F -16.1 °F 83% 29.96 in - West 3.5 mph - N/A   Unknown
10:00 PM -14.3 °F -33.9 °F -18.4 °F 82% 29.95 in - North 10.4 mph - N/A   Unknown
11:00 PM -15 °F - -20 °F 68% 29.94 in - North 10.4 mph - -  
11:00 PM -15.3 °F -32.9 °F -19.7 °F 81% 29.94 in - North 8.1 mph - N/A   Unknown